YACHTS Weather Reports


time (UTC)temp
C
wind
direction
speed
KPH
gust
KPH
rain 1hr
cm
rain 24hr
cm
rain mn
cm
humidity
%
barometer
mb
20260904131617 12 0 0.0 0.0 0.18 4.14 1.47 96 1008.2
20260904131104 12 0 0.0 14.5 0.18 4.14 1.42 96 1008.1
20260904130551 12 0 0.0 14.5 0.15 4.14 1.37 96 1008.0
20260904125525 12 0 0.0 9.7 0.05 4.01 1.32 96 1007.9
20260904125012 12 0 0.0 9.7 0.05 4.01 1.24 96 1007.9
20260904124459 12 0 0.0 9.7 0.10 4.01 1.24 96 1007.9
20260904123946 12 0 0.0 0.0 0.10 4.01 1.24 96 1007.8
20260904123433 12 0 0.0 19.3 0.46 4.01 1.24 96 1007.9
20260904122920 12 0 0.0 19.3 0.56 4.01 1.24 96 1007.9
20260904122407 12 133 0.0 19.3 0.56 4.01 1.24 96 1007.8
20260904121854 12 0 0.0 0.0 0.64 4.01 1.24 96 1007.7
20260904121341 12 0 0.0 0.0 0.64 4.01 1.24 96 1007.8
20260904120830 12 0 0.0 4.8 0.66 4.01 1.24 96 1007.6
20260904120315 11 0 0.0 4.8 0.66 4.01 1.24 96 1007.6
20260904115802 12 0 0.0 4.8 0.74 3.99 1.22 96 1007.5
20260904115249 12 0 0.0 0.0 0.74 3.99 1.19 96 1007.3
20260904114736 12 0 0.0 4.8 0.84 3.99 1.19 96 1007.2
20260904114223 12 114 0.0 4.8 0.84 3.99 1.17 96 1007.1
20260904113710 12 0 0.0 4.8 0.53 3.99 1.09 96 1006.9
20260904113157 11 85 0.0 4.8 0.53 3.99 0.86 96 1007.1
20260904112644 12 0 0.0 0.0 0.46 3.99 0.74 96 1007.1
20260904112131 12 0 0.0 0.0 0.46 3.99 0.69 96 1007.1
20260904111618 11 0 0.0 0.0 0.38 3.99 0.66 96 1007.0
20260904105526 12 0 0.0 0.0 0.25 3.78 0.51 96 1006.7
20260904105013 12 0 0.0 0.0 0.25 3.78 0.46 96 1006.8
20260904104500 11 0 0.0 0.0 0.18 3.78 0.36 96 1007.1
20260904103947 11 0 0.0 0.0 0.18 3.78 0.30 96 1007.0
20260904103434 12 0 0.0 0.0 0.18 3.78 0.28 96 1007.0
20260904102921 12 0 0.0 0.0 0.18 3.78 0.25 95 1007.0
20260904102408 11 0 0.0 0.0 0.18 3.78 0.23 96 1006.9
20260904101855 11 0 0.0 0.0 0.18 3.78 0.23 96 1006.9
20260904101342 11 0 0.0 0.0 0.18 3.78 0.23 95 1006.7
20260904100829 12 0 0.0 0.0 0.18 3.78 0.23 95 1006.9
20260904100316 11 0 0.0 0.0 0.18 3.78 0.23 95 1006.9
20260904095803 11 0 0.0 0.0 0.15 3.63 0.23 95 1006.9
20260904095250 12 0 0.0 0.0 0.15 3.63 0.20 95 1007.0
20260904094737 12 0 0.0 0.0 0.08 3.63 0.18 96 1007.0
20260904094224 11 0 0.0 0.0 0.08 3.63 0.13 95 1007.1
20260904093711 11 0 0.0 0.0 0.08 3.63 0.13 95 1007.2
20260904093158 11 0 0.0 0.0 0.08 3.63 0.10 95 1007.1
20260904092132 11 0 0.0 0.0 0.05 3.63 0.05 95 1007.2
20260904091619 11 0 0.0 0.0 0.05 3.63 0.05 95 1007.2
20260904091106 11 0 0.0 0.0 0.05 3.63 0.05 95 1007.2
20260904090553 11 0 0.0 0.0 0.05 3.63 0.05 95 1007.2
20260904090040 12 0 0.0 0.0 0.05 3.63 0.05 95 1007.3
20260904085527 12 0 0.0 0.0 0.05 3.58 0.05 95 1007.3
20260904085014 11 0 0.0 0.0 0.05 3.58 0.05 95 1007.3
20260904084501 11 0 0.0 0.0 0.05 3.58 0.05 95 1007.3
20260904083948 12 0 0.0 0.0 0.05 3.58 0.05 95 1007.2
20260904083435 11 0 0.0 0.0 0.00 3.58 0.05 95 1007.2
20260904082922 11 0 0.0 0.0 0.03 3.58 0.00 95 1007.2
20260904082409 11 0 0.0 0.0 0.03 3.58 0.00 95 1007.2
20260904081856 11 0 0.0 0.0 0.05 3.58 0.00 95 1007.2
20260904081343 11 0 0.0 0.0 0.05 3.58 0.00 95 1007.1
20260904080830 11 0 0.0 0.0 0.05 3.58 0.00 95 1007.0
20260904080317 11 0 0.0 0.0 0.05 3.58 0.00 95 1006.9
20260904075804 11 0 0.0 0.0 0.05 3.58 0.00 95 1007.0
20260904075251 12 0 0.0 0.0 0.05 3.58 3.58 95 1007.0
20260904074738 12 0 0.0 0.0 0.08 3.58 3.58 95 1007.0
20260904074225 12 0 0.0 0.0 0.08 3.58 3.58 95 1007.0
20260904073712 12 0 0.0 0.0 0.08 3.58 3.58 95 1007.0
20260904073158 12 0 0.0 0.0 0.08 3.58 3.58 95 1007.0
20260904072646 11 0 0.0 0.0 0.08 3.58 3.58 95 1007.0
20260904072133 12 0 0.0 0.0 0.08 3.56 3.56 95 1007.0
20260904071620 12 0 0.0 0.0 0.18 3.56 3.56 95 1007.0
20260904071106 12 0 0.0 0.0 0.18 3.53 3.53 95 1006.9
20260904070553 12 0 0.0 0.0 0.53 3.53 3.53 95 1006.8
20260904070040 12 0 0.0 0.0 0.53 3.53 3.53 95 1006.8
20260904065528 12 0 0.0 0.0 0.69 3.53 3.53 95 1006.8
20260904065014 12 0 0.0 0.0 0.69 3.53 3.53 95 1006.7
20260904064502 12 0 0.0 0.0 0.69 3.51 3.51 94 1006.6
20260904063948 12 0 0.0 9.7 0.69 3.51 3.51 94 1006.6
20260904063435 12 0 0.0 9.7 0.74 3.51 3.51 94 1006.7
20260904062922 12 100 3.2 9.7 0.71 3.51 3.51 94 1006.6
20260904062409 12 0 0.0 0.0 0.71 3.48 3.48 94 1006.7
20260904062102 12 0 0.0 0.0 0.61 3.45 3.48 94 1006.5
20260904061856 12 0 0.0 0.0 0.61 3.45 3.48 94 1006.5
20260904061343 12 0 0.0 0.0 0.61 3.43 3.43 94 1006.6
20260904060830 12 0 0.0 0.0 0.33 3.25 3.30 94 1006.7
20260904060317 12 0 0.0 0.0 0.33 3.10 3.12 94 1006.7
20260904055804 12 0 0.0 0.0 0.28 2.95 2.97 94 1006.7
20260904055251 12 0 0.0 0.0 0.28 2.87 2.87 94 1006.6
20260904054738 12 0 0.0 9.7 0.28 2.84 2.84 94 1006.4
20260904054226 12 0 0.0 9.7 0.28 2.82 2.82 94 1006.5
20260904053712 12 142 0.0 9.7 0.25 2.79 2.82 94 1006.6
20260904052133 12 0 0.0 0.0 0.25 2.77 2.77 94 1006.8
20260904051107 11 0 0.0 0.0 0.25 2.74 2.74 94 1007.0
20260904050554 12 0 0.0 0.0 0.23 2.72 2.72 94 1007.2
20260904045528 12 0 0.0 0.0 0.18 2.64 2.64 94 1007.2
20260904045016 11 0 0.0 0.0 0.18 2.57 2.59 94 1007.3
20260904043949 12 0 0.0 0.0 0.23 2.54 2.54 94 1007.1
20260904043436 12 0 0.0 0.0 0.25 2.51 2.51 94 1007.1
20260904042923 12 0 0.0 0.0 0.30 2.51 2.51 93 1007.1
20260904042410 12 0 0.0 6.4 0.30 2.51 2.51 93 1007.2
20260904041858 12 0 0.0 6.4 0.30 2.51 2.51 93 1007.2
20260904041344 12 92 0.0 6.4 0.30 2.51 2.51 93 1007.2
20260904040831 12 0 0.0 0.0 0.28 2.49 2.49 93 1007.2
20260904040318 12 0 0.0 0.0 0.28 2.46 2.46 93 1007.3
20260904035805 12 0 0.0 6.4 0.23 2.41 2.41 93 1007.4
20260904035408 12 232 0.0 6.4 0.23 2.41 2.41 93 1007.5
20260904035252 12 232 0.0 6.4 0.23 2.41 2.41 93 1007.5
20260904034739 12 0 0.0 6.4 0.18 2.39 2.39 93 1007.6
20260904034226 12 232 0.0 12.9 0.18 2.31 2.34 93 1007.5
20260904033713 12 184 0.0 12.9 0.18 2.29 2.29 93 1007.4
20260904033200 12 175 0.0 12.9 0.18 2.26 2.26 93 1007.4
20260904032647 12 233 1.6 12.9 0.15 2.24 2.24 93 1007.4
20260904032135 12 201 4.8 20.9 0.15 2.21 2.21 93 1007.4
20260904031622 12 242 0.0 20.9 0.13 2.18 2.21 93 1007.5
20260904031108 12 141 0.0 20.9 0.13 2.18 2.18 93 1007.4
20260904030555 12 236 1.6 22.5 0.15 2.18 2.18 93 1007.3
20260904025529 12 0 3.2 22.5 0.15 2.16 2.16 92 1007.2
20260904025016 12 191 6.4 22.5 0.15 2.16 2.16 92 1007.4
20260904024503 12 247 4.8 14.5 0.13 2.16 2.16 92 1007.4
20260904023950 12 0 0.0 0.0 0.13 2.13 2.13 92 1007.5
20260904023438 12 142 8.0 25.7 0.13 2.08 2.08 92 1007.5
20260904022924 13 302 6.4 25.7 0.15 2.06 2.06 92 1007.5
20260904022411 13 214 3.2 25.7 0.15 2.06 2.06 92 1007.4
20260904021858 13 254 0.0 20.9 0.15 2.06 2.06 92 1007.5
20260904021345 13 217 4.8 20.9 0.15 2.06 2.06 92 1007.6
20260904020832 13 211 8.0 20.9 0.13 2.06 2.06 92 1007.7
20260904020319 13 183 0.0 17.7 0.13 2.01 2.01 92 1007.6
20260904015806 13 159 4.8 16.1 0.18 2.01 2.01 92 1007.5
20260904014740 13 137 1.6 17.7 0.18 2.01 2.01 92 1007.5
20260904013715 12 189 8.0 17.7 0.15 2.01 2.01 92 1007.6
20260904013201 13 197 0.0 12.9 0.15 1.96 1.96 91 1007.6
20260904012648 12 140 3.2 25.7 0.18 1.93 1.93 91 1007.6
20260904012135 13 173 6.4 25.7 0.18 1.91 1.91 91 1007.6
20260904011622 13 173 8.0 25.7 0.18 1.91 1.91 91 1007.6
20260904011109 13 116 3.2 22.5 0.18 1.91 1.91 91 1007.6
20260904010556 12 235 1.6 19.3 0.15 1.91 1.91 91 1007.6
20260904010043 12 137 0.0 20.9 0.15 1.88 1.91 91 1007.7
20260904005530 13 158 0.0 20.9 0.10 1.85 1.85 91 1007.7
20260904005017 13 5 3.2 20.9 0.10 1.83 1.83 91 1007.6
20260904004504 13 165 4.8 16.1 0.10 1.83 1.83 91 1007.6
20260904003951 13 239 0.0 11.3 0.10 1.83 1.83 91 1007.7
20260904002925 13 232 6.4 17.7 0.03 1.80 1.80 90 1007.7
20260904001859 13 182 8.0 14.5 0.03 1.73 1.73 91 1007.7
20260904001346 13 170 9.7 30.6 0.03 1.73 1.73 91 1007.7
20260904000833 13 236 4.8 30.6 0.03 1.73 1.73 91 1007.8
20260904000320 14 180 4.8 30.6 0.03 1.73 1.73 91 1007.9
20260903235807 13 200 4.8 14.5 0.03 1.73 1.73 91 1007.8
20260903235254 13 242 1.6 20.9 0.03 1.73 1.73 91 1007.8
20260903234741 13 144 9.7 20.9 0.03 1.73 1.73 91 1007.9
20260903234228 13 184 4.8 20.9 0.03 1.73 1.73 91 1007.9
20260903233715 13 221 1.6 29.0 0.03 1.73 1.73 91 1007.9
20260903233202 13 204 6.4 29.0 0.03 1.73 1.73 91 1008.0
20260903232649 13 228 1.6 29.0 0.00 1.73 1.73 91 1008.0
20260903232136 13 124 8.0 24.1 0.00 1.73 1.73 91 1008.1
20260903231623 13 89 6.4 17.7 0.00 1.70 1.70 91 1008.2
20260903231110 13 161 9.7 17.7 0.00 1.70 1.70 91 1008.2
20260903230557 14 214 0.0 27.4 0.00 1.70 1.70 91 1008.2
20260903230044 14 238 6.4 27.4 0.00 1.70 1.70 91 1008.3
20260903225531 14 243 4.8 27.4 0.00 1.78 1.70 91 1008.3
20260903225018 14 253 6.4 20.9 0.00 1.78 1.70 91 1008.3
20260903224505 14 246 12.9 20.9 0.00 1.78 1.70 91 1008.4
20260903223952 14 257 8.0 25.7 0.00 1.78 1.70 92 1008.3
20260903222926 14 270 3.2 25.7 0.00 1.78 1.70 92 1008.3
20260903222413 13 158 4.8 19.3 0.00 1.78 1.70 92 1008.2
20260903221347 14 246 9.7 32.2 0.00 1.78 1.70 92 1008.4
20260903220321 13 228 11.3 19.3 0.00 1.78 1.70 92 1008.3
20260903215808 14 217 9.7 19.3 0.00 1.88 1.70 92 1008.3
20260903215255 14 127 4.8 17.7 0.00 1.88 1.70 92 1008.4
20260903214742 14 194 6.4 17.7 0.00 1.88 1.70 92 1008.4
20260903213716 14 170 0.0 35.4 0.03 1.88 1.70 93 1008.5
20260903213203 14 196 8.0 35.4 0.03 1.88 1.70 93 1008.4
20260903212650 14 137 12.9 35.4 0.05 1.88 1.70 93 1008.5
20260903212137 14 235 8.0 25.7 0.05 1.88 1.70 93 1008.5
20260903211624 14 240 0.0 19.3 0.15 1.88 1.70 93 1008.5
20260903205532 13 245 4.8 24.1 0.15 1.96 1.70 94 1008.4
20260903204506 13 296 3.2 17.7 0.15 1.96 1.70 93 1008.5
20260903203953 13 246 6.4 17.7 0.15 1.96 1.70 93 1008.5
20260903203440 13 131 4.8 20.9 0.13 1.96 1.68 94 1008.6
20260903202927 13 271 0.0 20.9 0.10 1.96 1.68 93 1008.8
20260903202414 13 194 3.2 20.9 0.10 1.96 1.65 93 1008.7
20260903201348 13 277 8.0 19.3 0.00 1.96 1.57 93 1008.8
20260903200322 14 130 4.8 25.7 0.05 1.96 1.55 94 1008.6
20260903194743 13 148 0.0 17.7 0.28 2.13 1.55 94 1008.9
20260903193717 12 240 0.0 14.5 0.41 2.13 1.55 94 1008.9
20260903192651 12 204 0.0 14.5 0.43 2.13 1.55 94 1008.9
20260903192138 12 222 0.0 11.3 0.43 2.13 1.55 94 1009.0
20260903190046 11 102 4.8 24.1 0.51 2.13 1.50 93 1009.5
20260903185021 11 154 1.6 8.0 0.41 1.88 1.37 93 1009.4
20260903183954 11 0 0.0 0.0 0.30 1.88 1.27 93 1009.4
20260903183441 11 0 0.0 0.0 0.20 1.88 1.24 93 1009.4
20260903182927 11 0 0.0 0.0 0.23 1.88 1.14 93 1009.4
20260903182415 11 0 0.0 16.1 0.23 1.88 1.12 93 1009.5
20260903181901 11 0 0.0 16.1 0.18 1.88 1.09 93 1009.4
20260903181349 11 172 0.0 16.1 0.18 1.88 1.07 93 1009.5
20260903180835 11 236 0.0 11.3 0.15 1.88 1.02 93 1009.4
20260903180322 11 154 0.0 11.3 0.15 1.88 0.99 93 1009.3
20260903175809 12 189 0.0 8.0 0.13 1.93 0.99 93 1009.2
20260903175257 12 245 0.0 17.7 0.13 1.93 0.97 92 1009.2
20260903174744 12 267 0.0 17.7 0.13 1.93 0.97 92 1009.2
20260903174231 11 204 1.6 17.7 0.13 1.93 0.97 92 1009.3
20260903173717 12 282 0.0 22.5 0.10 1.93 0.94 92 1009.3
20260903173205 12 165 6.4 22.5 0.10 1.93 0.94 92 1009.3
20260903172651 12 176 1.6 22.5 0.05 1.93 0.91 92 1009.2
20260903172139 12 0 0.0 19.3 0.05 1.93 0.91 92 1009.2
20260903171625 12 225 8.0 19.3 0.03 1.93 0.89 92 1009.1
20260903171112 13 85 6.4 25.7 0.03 1.93 0.86 92 1009.0
20260903170559 13 245 6.4 25.7 0.03 1.93 0.84 91 1009.2
20260903170047 13 148 4.8 25.7 0.03 1.93 0.84 92 1009.1
20260903165533 13 229 1.6 22.5 0.03 2.11 0.84 92 1009.1
20260903165020 13 261 11.3 22.5 0.03 2.11 0.84 92 1008.9
20260903164508 13 238 4.8 19.3 0.03 2.11 0.84 92 1008.7
20260903163954 13 155 6.4 22.5 0.03 2.11 0.84 92 1008.7
20260903163441 13 218 1.6 22.5 0.03 2.11 0.84 92 1008.6
20260903162929 13 247 3.2 22.5 0.03 2.11 0.84 92 1008.7
20260903162417 13 273 4.8 27.4 0.03 2.11 0.84 92 1008.8
20260903161902 13 144 6.4 27.4 0.03 2.11 0.84 93 1008.9
20260903161349 13 172 1.6 27.4 0.03 2.11 0.84 93 1009.0
20260903155810 13 266 1.6 29.0 0.00 2.29 0.81 93 1009.2
20260903155257 13 158 8.0 29.0 0.00 2.29 0.81 93 1009.2
20260903154745 13 291 6.4 14.5 0.00 2.29 0.81 93 1009.3
20260903154231 13 148 6.4 41.8 0.00 2.29 0.81 93 1009.1
20260903153718 13 249 8.0 41.8 0.00 2.29 0.81 93 1009.1
20260903153206 13 267 12.9 41.8 0.00 2.29 0.81 93 1009.0
20260903152723 13 240 4.8 30.6 0.00 2.29 0.81 93 1009.0
20260903152652 13 240 4.8 30.6 0.00 2.29 0.81 93 1009.0
20260903152139 12 205 3.2 20.9 0.00 2.29 0.81 94 1008.9
20260903151626 12 61 0.0 20.9 0.00 2.29 0.81 94 1009.0
20260903151113 12 267 0.0 20.9 0.00 2.29 0.81 93 1009.0
20260903150600 12 170 0.0 8.0 0.00 2.29 0.81 93 1009.0
20260903150047 12 130 0.0 27.4 0.00 2.29 0.81 93 1009.0
20260903145534 12 229 3.2 27.4 0.00 2.41 0.81 93 1009.0
20260903145021 12 238 3.2 14.5 0.00 2.41 0.81 93 1008.9
20260903144508 12 204 0.0 6.4 0.00 2.41 0.81 93 1008.8
20260903143955 13 204 8.0 32.2 0.00 2.41 0.81 93 1008.9
20260903143442 13 175 6.4 32.2 0.00 2.41 0.81 93 1008.9
20260903142929 13 162 12.9 32.2 0.00 2.41 0.81 93 1008.9
20260903142416 13 186 4.8 27.4 0.00 2.41 0.81 93 1008.8
20260903141904 13 175 6.4 27.4 0.00 2.41 0.81 93 1008.9
20260903141350 13 233 0.0 11.3 0.00 2.41 0.81 93 1008.9
20260903140837 13 184 1.6 41.8 0.00 2.41 0.81 93 1008.9
20260903140324 13 183 6.4 41.8 0.00 2.41 0.81 93 1008.8
20260903135811 13 162 8.0 41.8 0.00 2.44 0.81 94 1008.9
20260903135258 13 169 3.2 16.1 0.00 2.44 0.81 93 1008.7
20260903134746 13 275 0.0 30.6 0.00 2.44 0.81 94 1008.8
20260903134232 13 169 3.2 30.6 0.00 2.44 0.81 94 1008.8
20260903133719 13 175 1.6 30.6 0.00 2.44 0.81 94 1008.8
20260903133206 13 242 3.2 19.3 0.00 2.44 0.81 94 1008.8
20260903132653 13 210 3.2 19.3 0.03 2.44 0.81 94 1008.8
20260903132140 13 208 0.0 22.5 0.03 2.44 0.81 93 1008.8